Date String (YYYY-MM-DD hh:mm:ss) UTC,Instrument flags,Ambient pressure (hPa),Sample flow (lpm),Bypass flow (lpm),Sample temperature (°C),Ambient temperature (°C),ASC tube jacket temperature (°C),LED temperature (°C),Box temperature (°C),Sample RH (%),Span deviation,Mass concentration (μg/m³),Mass concentration (μg/m³),Mass concentration (μg/m³)
DateTimeUTC,F1_M11,P_M11,Q1_M11,Q2_M11,T1_M11,T2_M11,T3_M11,T4_M11,T5_M11,U1_M11,ZSPAN_M11,X0_M11,X2_M11,X1_M11
2022-02-02 11:00:00,,0824.3,4.99,0.00,22.2,22.6,00.0,31.1,24.1,06.7,0000.0,0002.79,0001.21,0000.85
2022-02-02 11:01:00,,0824.3,5.01,0.00,22.2,22.1,00.0,31.1,24.0,06.7,0000.0,0002.79,0001.18,0000.85
2022-02-02 11:02:00,,0824.3,4.99,0.00,22.2,21.8,00.0,31.1,23.8,06.7,0000.0,0002.78,0001.18,0000.85
2022-02-02 11:03:00,,0824.3,5.01,0.00,22.1,21.6,00.0,31.1,23.8,06.7,0000.0,0002.76,0001.18,0000.84
2022-02-02 11:04:00,,0824.3,4.99,0.00,22.1,21.4,00.0,31.1,23.7,06.7,0000.0,0002.81,0001.20,0000.84
2022-02-02 11:05:00,,0824.3,5.01,0.00,22.0,21.2,00.0,31.1,23.6,06.7,0000.0,0002.84,0001.21,0000.84
2022-02-02 11:06:00,,0824.3,4.99,0.00,22.0,21.0,00.0,31.0,23.5,06.8,0000.0,0003.21,0001.22,0000.83
2022-02-02 11:07:00,,0824.3,5.00,0.00,21.9,20.9,00.0,31.0,23.4,06.8,0000.0,0003.34,0001.19,0000.83
2022-02-02 11:08:00,,0824.3,4.99,0.00,21.9,21.4,00.0,31.0,23.5,06.8,0000.0,0003.04,0001.17,0000.82
2022-02-02 11:09:00,,0824.3,5.00,0.00,22.0,22.3,00.0,31.1,23.8,06.7,0000.0,0002.82,0001.16,0000.82
2022-02-02 11:10:00,,0824.3,5.00,0.00,22.2,23.1,00.0,31.1,24.1,06.7,0000.0,0002.83,0001.17,0000.82
2022-02-02 11:11:00,,0824.2,5.00,0.00,22.3,23.2,00.0,31.1,24.2,06.6,0000.0,0002.68,0001.16,0000.82
2022-02-02 11:12:00,,0824.3,5.00,0.00,22.3,22.8,00.0,31.2,24.2,06.6,0000.0,0002.47,0001.17,0000.82
2022-02-02 11:13:00,,0824.3,5.00,0.00,22.3,22.3,00.0,31.2,24.1,06.6,0000.0,0002.45,0001.17,0000.82
2022-02-02 11:14:00,,0824.3,4.99,0.00,22.2,21.9,00.0,31.2,23.9,06.6,0000.0,0002.42,0001.17,0000.82
2022-02-02 11:15:00,,0824.3,5.01,0.00,22.2,21.6,00.0,31.1,23.8,06.6,0000.0,0002.33,0001.14,0000.81
2022-02-02 11:16:00,,0824.3,5.00,0.00,22.1,21.4,00.0,31.1,23.7,06.6,0000.0,0002.33,0001.13,0000.80
2022-02-02 11:17:00,,0824.3,5.00,0.00,22.1,21.2,00.0,31.1,23.6,06.7,0000.0,0001.93,0001.10,0000.79
2022-02-02 11:18:00,,0824.3,5.00,0.00,22.0,21.1,00.0,31.1,23.6,06.7,0000.0,0001.72,0001.11,0000.79
2022-02-02 11:19:00,,0824.3,5.00,0.00,22.0,21.0,00.0,31.1,23.5,06.7,0000.0,0001.78,0001.15,0000.80
2022-02-02 11:20:00,,0824.3,5.00,0.00,21.9,20.9,00.0,31.0,23.4,06.7,0000.0,0001.82,0001.14,0000.79
2022-02-02 11:21:00,,0824.3,5.01,0.00,22.0,21.6,00.0,31.1,23.6,06.7,0000.0,0001.87,0001.14,0000.79
2022-02-02 11:22:00,,0824.3,4.98,0.00,22.1,22.4,00.0,31.1,23.9,06.7,0000.0,0001.91,0001.14,0000.79
2022-02-02 11:23:00,,0824.3,5.01,0.00,22.2,22.9,00.0,31.1,24.1,06.6,0000.0,0001.93,0001.14,0000.78
2022-02-02 11:24:00,,0824.3,5.00,0.00,22.2,22.6,00.0,31.1,24.1,06.6,0000.0,0001.93,0001.13,0000.77
2022-02-02 11:25:00,,0824.3,5.00,0.00,22.2,22.1,00.0,31.1,24.0,06.6,0000.0,0002.01,0001.14,0000.76
2022-02-02 11:26:00,,0824.3,5.00,0.00,22.2,21.7,00.0,31.1,23.8,06.6,0000.0,0002.09,0001.17,0000.76
2022-02-02 11:27:00,,0824.3,5.02,0.00,22.1,21.5,00.0,31.1,23.7,06.6,0000.0,0002.11,0001.16,0000.76
2022-02-02 11:28:00,,0824.3,4.98,0.00,22.0,21.2,00.0,31.1,23.6,06.6,0000.0,0002.15,0001.17,0000.76
2022-02-02 11:29:00,,0824.2,5.01,0.00,22.0,21.1,00.0,31.1,23.5,06.7,0000.0,0002.43,0001.22,0000.77
2022-02-02 11:30:00,,0824.3,4.99,0.00,21.9,20.9,00.0,31.0,23.4,06.7,0000.0,0003.36,0001.20,0000.76
2022-02-02 11:31:00,,0824.3,5.01,0.00,21.9,21.4,00.0,31.0,23.5,06.7,0000.0,0003.30,0001.19,0000.76
2022-02-02 11:32:00,,0824.3,5.00,0.00,22.1,22.3,00.0,31.1,23.8,06.6,0000.0,0003.29,0001.21,0000.76
2022-02-02 11:33:00,,0824.3,4.98,0.00,22.2,22.8,00.0,31.1,24.0,06.6,0000.0,0003.48,0001.27,0000.77
2022-02-02 11:34:00,,0824.3,5.00,0.00,22.2,22.6,00.0,31.1,24.1,06.6,0000.0,0003.54,0001.28,0000.78
2022-02-02 11:35:00,,0824.3,5.00,0.00,22.2,22.2,00.0,31.1,24.0,06.6,0000.0,0003.57,0001.28,0000.79
2022-02-02 11:36:00,,0824.3,5.01,0.00,22.2,21.9,00.0,31.1,23.8,06.6,0000.0,0003.49,0001.26,0000.79
2022-02-02 11:37:00,,0824.3,5.00,0.00,22.1,21.5,00.0,31.1,23.7,06.6,0000.0,0003.46,0001.24,0000.80
2022-02-02 11:38:00,,0824.3,4.99,0.00,22.0,21.3,00.0,31.1,23.6,06.6,0000.0,0003.54,0001.29,0000.81
2022-02-02 11:39:00,,0824.3,5.00,0.00,22.0,21.1,00.0,31.0,23.5,06.6,0000.0,0003.59,0001.33,0000.82
2022-02-02 11:40:00,,0824.3,5.01,0.00,21.9,20.9,00.0,31.0,23.4,06.7,0000.0,0003.36,0001.28,0000.81
2022-02-02 11:41:00,,0824.3,4.99,0.00,21.9,21.0,00.0,31.0,23.4,06.7,0000.0,0002.50,0001.29,0000.81
2022-02-02 11:42:00,,0824.4,5.00,0.00,21.9,21.7,00.0,31.0,23.6,06.6,0000.0,0003.00,0001.27,0000.81
2022-02-02 11:43:00,,0824.4,5.00,0.00,22.1,22.6,00.0,31.1,23.9,06.6,0000.0,0003.17,0001.26,0000.81
2022-02-02 11:44:00,,0824.4,5.00,0.00,22.2,22.8,00.0,31.1,24.0,06.5,0000.0,0002.92,0001.17,0000.80
2022-02-02 11:45:00,,0824.3,5.01,0.00,22.2,22.5,00.0,31.1,24.0,06.5,0000.0,0002.80,0001.16,0000.79
2022-02-02 11:46:00,,0824.3,4.99,0.00,22.2,22.0,00.0,31.1,23.9,06.5,0000.0,0002.82,0001.16,0000.80
2022-02-02 11:47:00,,0824.4,5.01,0.00,22.1,21.6,00.0,31.1,23.8,06.5,0000.0,0002.87,0001.18,0000.80
2022-02-02 11:48:00,,0824.4,4.98,0.00,22.0,21.3,00.0,31.1,23.6,06.6,0000.0,0002.83,0001.17,0000.80
2022-02-02 11:49:00,,0824.4,5.00,0.00,22.0,21.0,00.0,31.0,23.5,06.6,0000.0,0002.69,0001.12,0000.79
2022-02-02 11:50:00,,0824.4,5.02,0.00,21.9,20.9,00.0,31.0,23.4,06.6,0000.0,0002.56,0001.08,0000.79
2022-02-02 11:51:00,,0824.4,4.98,0.00,21.9,21.3,00.0,31.0,23.5,06.6,0000.0,0002.57,0001.08,0000.80
2022-02-02 11:52:00,,0824.4,5.00,0.00,22.0,22.2,00.0,31.0,23.7,06.6,0000.0,0002.56,0001.04,0000.79
2022-02-02 11:53:00,,0824.4,5.01,0.00,22.1,22.9,00.0,31.1,24.0,06.5,0000.0,0002.11,0001.06,0000.78
2022-02-02 11:54:00,,0824.4,5.00,0.00,22.2,22.7,00.0,31.1,24.1,06.5,0000.0,0001.92,0001.06,0000.78
2022-02-02 11:55:00,,0824.4,5.00,0.00,22.2,22.3,00.0,31.1,24.0,06.5,0000.0,0002.05,0001.10,0000.79
2022-02-02 11:56:00,,0824.4,4.99,0.00,22.2,22.0,00.0,31.1,23.9,06.5,0000.0,0002.18,0001.12,0000.79
2022-02-02 11:57:00,,0824.4,5.01,0.00,22.1,21.7,00.0,31.1,23.8,06.5,0000.0,0002.17,0001.10,0000.79
2022-02-02 11:58:00,,0824.4,4.98,0.00,22.1,21.4,00.0,31.1,23.7,06.5,0000.0,0002.14,0001.10,0000.79
2022-02-02 11:59:00,,0824.6,5.00,0.00,22.0,21.2,00.0,31.1,23.6,06.5,0000.0,0002.14,0001.10,0000.79
